Weather in Tatarskoye Abdikeyevo

Russia / Samara Oblast     54°23′24″N   51°44′55″E
temp.,
°C
wind,
m/s
gust,
m/s
humid.,
%
clouds,
%
prec.,
mm/h
press.,
hPa
HPBL,
m
28 september, tue
tue2801:00+3ene61183100 0.2 1019844
04:00+2ne511827 0.2 1020607
07:00+1ne713825 0.0 1022563
10:00+5ne8116631 0.0 1022894
13:00+8ne8104823 0.0 10231458
16:00+8ne794459 0.0 10241650
19:00+5nne5115697 0.0 1025388
22:00+4nne51164100 0.0 1026404
29 september, wed
wed2901:00+3nne3971100 0.0 1027282
04:00+2nne387461 0.0 1028255
07:00+1nne398126 0.0 1029214
10:00+6ne58535 0.0 10291180
13:00+8nne564391 0.0 10281784
16:00+8nne564472 0.0 10281674
19:00+5ne225977 0.0 102917
22:00+3nne11645 0.0 102910
30 september, thu
thu3001:00+2nne11675 0.0 102910
04:00+1n11715 0.0 102910
07:00+1nnw11755 0.0 103010
10:00+6nnw22575 0.0 1030394
13:00+9nnw345081 0.0 10291514
16:00+8nnw3453100 0.0 1029807
19:00+7nw2570100 0.0 1029152
22:00+7w2678100 0.1 1029290
1 october, fri
fri101:00+7wnw3590100 0.0 1029249
04:00+7wnw3693100 0.1 1028307
07:00+7wnw3793100 0.0 1029321
10:00+9nw458393 0.0 1029417
13:00+11nw347196 0.0 1029714
16:00+13wnw346390 0.0 10291166
19:00+11wnw2370100 0.0 102963
22:00+10wnw2476100 0.0 1030119
2 october, sat
sat201:00+10wnw2478100 0.0 1030128
04:00+9nw2280100 0.0 103043
07:00+9nw117896 0.0 103121
10:00+11nnw336498 0.0 1031463
13:00+13nnw345492 0.0 10311377
16:00+13n3452100 0.0 10311345
19:00+11ne116360 0.0 103233
22:00+8n11746 0.0 103311